Retour au catalogue

STARLINK-35090

ActifCommunicationsVLEO
NORAD 65698·PAYLOAD·🇺🇸 United States

Lancé Sep 21, 2025 depuis Cape Canaveral Space Force Station

Loading…

Prochains Passages (prochaines 24 heures)

TLE

FraisSource: CelesTrak SupGP

Époque: Sep 15, 2026, 02:34 UTC

1 65698C 25212Y   26258.10743056 -.00055123  00000+0 -16276-2 0  2584
2 65698  53.1582 182.6129 0001312  85.2974 139.0765 15.34438367    17

Suivez STARLINK-35090 en temps réel avec AllMySat

Download on the App Store